Location: Étouvelles
(49.5207°N, 3.5808°E)
Time: 08:47:15
(UTC+00:00)

Cosmos 1745 Rocket - Pass Details

Date: 03 February 2023
Orbit: 951 x 998 km, 83.0° (Epoch: 23 March)

Event Time Altitude Azimuth Distance (km) Brightness Sun altitude
Rises 19:13:10 0° 348° (NNW) 3,701 7.2 -24.3°
Reaches altitude 10° 19:15:42 10° 347° (NNW) 2,742 6.5 -24.7°
Maximum altitude 19:21:56 69° 266° (W) 1,037 4.2 -25.7°
Drops below altitude 10° 19:28:03 10° 184° (S) 2,691 6.3 -26.7°
Sets 19:30:31 0° 182° (S) 3,628 6.9 -27.1°
